Kleine Brogel, Belgium

8:47 PM CET on November 19, 2017 (GMT +0100)
Kleine-Brogel Air Base

Weather History for EBBL - November, 2017

Change the Weather History Date:

Wednesday, November 15, 2017

  Actual Average Record
Temperature  
Mean Temperature 46 °F -  
Max Temperature 48 °F 43 °F 60 °F (2006)
Min Temperature 44 °F 36 °F 24 °F (2001)
Degree Days  
Heating Degree Days 19    
Moisture  
Dew Point 46 °F    
Average Humidity 98    
Maximum Humidity 100    
Minimum Humidity 92    
Precipitation  
Precipitation 0.01 in - - ()
Sea Level Pressure  
Sea Level Pressure 30.28 in    
Wind  
Wind Speed 5 mph ()    
Max Wind Speed 7 mph    
Max Gust Speed -    
Visibility 1.4 miles    
Events Rain    
Averages and records for this station are not official NWS values.
T = Trace of Precipitation, MM = Missing Value Source: Averaged Metar Reports

Daily Weather History Graph

Daily Weather History Graph

Search for Another Location

Airport or City:

Trip Planner

Search our weather history database for the weather conditions in past years. The results will help you decide how hot, cold, wet, or windy it might be!

Date:

Astronomy

Nov. 15, 2017 Rise Set
Actual Time 7:55 AM CET 4:49 PM CET
Civil Twilight 7:18 AM CET 5:26 PM CET
Nautical Twilight 6:37 AM CET 6:06 PM CET
Astronomical Twilight 5:58 AM CET 6:45 PM CET
Moon 4:11 AM CET (11/15) 4:02 PM CET (11/15)
Length of Visible Light 10h 08m
Length of Day
8h 54m
Waning Crescent, 9% of the Moon is Illuminated
Nov 15
Waning Crescent
Nov 18
New
Nov 26
First Quarter
Dec 3
Full
Dec 10
Last Quarter

Hourly Weather History & Observations

Time (CET) Temp. Windchill Dew Point Humidity Pressure Visibility Wind Dir Wind Speed Gust Speed Precip Events Conditions
12:00 AM 45 °F - 44 °F 93% 30.30 in 3 mi SSW 6.7 mph - -   Partly Cloudy
12:25 AM 44.6 °F 40.7 °F 42.8 °F 93% 30.30 in - SW 6.9 mph - N/A   Overcast
12:55 AM 44.6 °F 40.7 °F 44.6 °F 100% 30.27 in 1.5 mi SW 6.9 mph - N/A   Overcast
1:00 AM 45 °F - 44 °F 94% 30.30 in 1 mi SW 6.7 mph - -   Mist
1:25 AM 44.6 °F 40.7 °F 44.6 °F 100% 30.30 in - SW 6.9 mph - N/A   Overcast
1:55 AM 44.6 °F 41.4 °F 44.6 °F 100% 30.27 in 2.5 mi SW 5.8 mph - N/A   Overcast
2:00 AM 45 °F - 44 °F 94% 30.30 in 2 mi SW 4.5 mph - -   Mist
2:25 AM 44.6 °F 41.4 °F 44.6 °F 100% 30.27 in - SSW 5.8 mph - N/A   Overcast
2:55 AM 44.6 °F 41.4 °F 44.6 °F 100% 30.27 in - SW 5.8 mph - N/A   Overcast
3:00 AM 45 °F - 44 °F 93% 30.30 in 3 mi SW 4.5 mph - -   Mist
3:25 AM 44.6 °F 41.4 °F 44.6 °F 100% 30.27 in - SSW 5.8 mph - N/A   Overcast
3:55 AM 44.6 °F 41.4 °F 42.8 °F 93% 30.27 in - SSW 5.8 mph - N/A   Overcast
4:00 AM 45 °F - 44 °F 92% 30.29 in 3 mi SSW 4.5 mph - -   Mist
4:25 AM 44.6 °F 41.4 °F 42.8 °F 93% 30.27 in 3.1 mi SSW 5.8 mph - N/A   Overcast
4:55 AM 44.6 °F 40.7 °F 44.6 °F 100% 30.27 in - SW 6.9 mph - N/A   Overcast
5:00 AM 45 °F - 44 °F 93% 30.28 in 2 mi SW 6.7 mph - -   Mist
5:25 AM 44.6 °F 41.4 °F 44.6 °F 100% 30.27 in 1.2 mi SW 5.8 mph - N/A   Overcast
5:33 AM 44.6 °F 41.4 °F 44.6 °F 100% 30.27 in 0.9 mi SSW 5.8 mph - N/A   Overcast
5:55 AM 44.6 °F 42.2 °F 44.6 °F 100% 30.27 in 1.1 mi SSW 4.6 mph - N/A   Light Drizzle
6:25 AM 44.6 °F 42.2 °F 44.6 °F 100% 30.27 in 1.1 mi SSW 4.6 mph - N/A   Light Drizzle
6:45 AM 44.6 °F 42.2 °F 44.6 °F 100% 30.27 in 0.9 mi SSW 4.6 mph - N/A   Light Drizzle
6:55 AM 44.6 °F 42.2 °F 44.6 °F 100% 30.27 in 1.0 mi SSW 4.6 mph - N/A   Light Drizzle
7:00 AM 44 °F - 44 °F 100% 30.29 in 1 mi SSW 4.5 mph - - Rain Light Drizzle
7:03 AM 44.6 °F 42.2 °F 44.6 °F 100% 30.27 in 0.9 mi SSW 4.6 mph - N/A   Light Drizzle
7:25 AM 44.6 °F 42.2 °F 44.6 °F 100% 30.27 in 1.1 mi SSW 4.6 mph - N/A   Light Drizzle
7:55 AM 44.6 °F 43.1 °F 44.6 °F 100% 30.27 in 1.0 mi SSW 3.5 mph - N/A   Light Drizzle
8:00 AM 45 °F - 44 °F 97% 30.30 in 1 mi 2.2 mph - - Rain Light Drizzle
8:10 AM 44.6 °F 42.2 °F 44.6 °F 100% 30.30 in 0.9 mi SSW 4.6 mph - N/A   Overcast
8:25 AM 44.6 °F 42.2 °F 44.6 °F 100% 30.30 in 0.9 mi SSW 4.6 mph - N/A   Overcast
8:46 AM 44.6 °F 42.2 °F 44.6 °F 100% 30.30 in 1.2 mi SSW 4.6 mph - N/A   Overcast
8:55 AM 44.6 °F 42.2 °F 44.6 °F 100% 30.30 in 1.2 mi SSW 4.6 mph - N/A   Overcast
9:00 AM 45 °F - 45 °F 100% 30.31 in 1 mi SSW 4.5 mph - -   Mist
9:25 AM 44.6 °F 41.4 °F 44.6 °F 100% 30.30 in 1.6 mi SSW 5.8 mph - N/A   Overcast
9:55 AM 46.4 °F 42.9 °F 44.6 °F 93% 30.30 in 1.4 mi SSW 6.9 mph - N/A   Overcast
10:00 AM 46 °F - 45 °F 96% 30.31 in 1 mi SSW 6.7 mph - -   Mist
10:17 AM 46.4 °F 43.5 °F 46.4 °F 100% 30.30 in 0.9 mi SSW 5.8 mph - N/A   Overcast
10:25 AM 46.4 °F 43.5 °F 46.4 °F 100% 30.30 in 0.9 mi SSW 5.8 mph - N/A   Overcast
11:00 AM 47 °F - 46 °F 96% 30.32 in 2 mi SW 6.7 mph - -   Mist
11:25 AM 46.4 °F 42.9 °F 46.4 °F 100% 30.30 in - SSW 6.9 mph - N/A   Overcast
11:55 AM 46.4 °F 43.5 °F 46.4 °F 100% 30.30 in 1.1 mi SW 5.8 mph - N/A   Overcast
12:00 PM 47 °F - 46 °F 97% 30.31 in 1 mi SW 4.5 mph - -   Mist
12:22 PM 48.2 °F - 46.4 °F 93% 30.30 in 0.9 mi SSW 5.8 mph - N/A   Overcast
12:25 PM 48.2 °F - 46.4 °F 93% 30.30 in 1.0 mi SW 5.8 mph - N/A   Overcast
12:41 PM 48.2 °F - 46.4 °F 93% 30.30 in 0.9 mi SSW 5.8 mph - N/A   Overcast
12:55 PM 48.2 °F - 46.4 °F 93% 30.30 in 0.9 mi SSW 5.8 mph - N/A   Light Drizzle
1:00 PM 47 °F - 47 °F 100% 30.30 in 1 mi SSW 4.5 mph - - Rain Light Drizzle
1:13 PM 48.2 °F - 46.4 °F 93% 30.27 in 1.2 mi SW 5.8 mph - N/A   Overcast
1:15 PM 48.2 °F - 46.4 °F 93% 30.27 in 0.9 mi SW 4.6 mph - N/A   Overcast
1:25 PM 48.2 °F - 48.2 °F 100% 30.27 in 0.9 mi SSW 4.6 mph - N/A   Overcast
1:55 PM 48.2 °F - 48.2 °F 100% 30.27 in 1.4 mi SSW 3.5 mph - N/A   Overcast
2:00 PM 48 °F - 48 °F 98% 30.29 in 1 mi 2.2 mph - -   Mist
2:25 PM 48.2 °F - 48.2 °F 100% 30.27 in - SSW 3.5 mph - N/A   Overcast
3:00 PM 48 °F - 48 °F 99% 30.29 in 3 mi 2.2 mph - -   Overcast
3:25 PM 48.2 °F - 48.2 °F 100% 30.27 in 2.5 mi SSW 4.6 mph - N/A   Overcast
3:55 PM 48.2 °F - 48.2 °F 100% 30.27 in 2.5 mi SW 3.5 mph - N/A   Overcast
4:00 PM 48 °F - 48 °F 100% 30.29 in 2 mi 4.5 mph - -   Mist
4:25 PM 48.2 °F - 48.2 °F 100% 30.27 in - SSW 4.6 mph - N/A   Overcast
4:55 PM 48.2 °F - 48.2 °F 100% 30.27 in 1.2 mi SW 3.5 mph - N/A   Overcast
5:00 PM 48 °F - 48 °F 100% 30.29 in 1 mi 4.5 mph - -   Mist
5:06 PM 48.2 °F - 48.2 °F 100% 30.27 in 0.9 mi SW 3.5 mph - N/A   Overcast
5:18 PM 48.2 °F - 48.2 °F 100% 30.27 in 1.2 mi Variable 2.3 mph - N/A   Overcast
5:25 PM 48.2 °F - 48.2 °F 100% 30.27 in 1.1 mi Variable 2.3 mph - N/A   Overcast
5:33 PM 48.2 °F - 48.2 °F 100% 30.27 in 0.9 mi Variable 2.3 mph - N/A   Overcast
5:48 PM 48.2 °F - 48.2 °F 100% 30.27 in 1.1 mi Variable 2.3 mph - N/A   Overcast
5:55 PM 48.2 °F - 48.2 °F 100% 30.27 in 1.2 mi Variable 2.3 mph - N/A   Overcast
6:00 PM 48 °F - 48 °F 100% 30.30 in 1 mi 2.2 mph - -   Mist
6:25 PM 48.2 °F - 48.2 °F 100% 30.27 in 1.0 mi SSW 3.5 mph - N/A   Overcast
6:33 PM 48.2 °F - 48.2 °F 100% 30.27 in 0.9 mi SSW 3.5 mph - N/A   Overcast
6:54 PM 48.2 °F - 48.2 °F 100% 30.27 in 1.2 mi SSW 3.5 mph - N/A   Overcast
6:55 PM 48.2 °F - 48.2 °F 100% 30.27 in 1.2 mi SSW 3.5 mph - N/A   Overcast
7:00 PM 48 °F - 48 °F 99% 30.29 in 1 mi 2.2 mph - -   Mist
7:17 PM 48.2 °F - 48.2 °F 100% 30.27 in 0.9 mi SSW 3.5 mph - N/A   Overcast
7:25 PM 48.2 °F - 48.2 °F 100% 30.27 in 1.1 mi SSW 3.5 mph - N/A   Overcast
7:55 PM 48.2 °F - 48.2 °F 100% 30.27 in 0.9 mi SW 3.5 mph - N/A   Overcast
8:00 PM 48 °F - 48 °F 98% 30.29 in 1 mi 2.2 mph - -   Mist
8:21 PM 48.2 °F - 48.2 °F 100% 30.27 in 1.3 mi Variable 2.3 mph - N/A   Overcast
8:33 PM 48.2 °F - 48.2 °F 100% 30.27 in 1.2 mi SSW 3.5 mph - N/A   Overcast
8:48 PM 48.2 °F - 48.2 °F 100% 30.27 in 1.4 mi SSW 3.5 mph - N/A   Overcast
8:55 PM 48.2 °F - 48.2 °F 100% 30.27 in 1.9 mi SSW 3.5 mph - N/A   Overcast
9:00 PM 48 °F - 48 °F 98% 30.29 in 2 mi 2.2 mph - -   Mist
9:25 PM 48.2 °F - 48.2 °F 100% 30.27 in 2.2 mi SSW 4.6 mph - N/A   Overcast
9:55 PM 48.2 °F - 48.2 °F 100% 30.27 in 1.2 mi SSW 4.6 mph - N/A   Overcast
10:00 PM 47 °F - 47 °F 100% 30.29 in 1 mi SSW 4.5 mph - -   Mist
10:25 PM 48.2 °F - 48.2 °F 100% 30.27 in 1.9 mi SW 5.8 mph - N/A   Overcast
10:55 PM 48.2 °F - 46.4 °F 93% 30.27 in 1.2 mi SSW 4.6 mph - N/A Rain Light Rain
11:00 PM 47 °F - 47 °F 100% 30.29 in 1 mi SSW 4.5 mph - - Rain Light Rain
11:25 PM 48.2 °F - 46.4 °F 93% 30.27 in 1.6 mi SSW 3.5 mph - N/A   Overcast
11:55 PM 48.2 °F - 46.4 °F 93% 30.27 in 2.8 mi SSW 3.5 mph - N/A   Overcast